Погода в Заставне

Украина / Черновицкая область     48°31′12″N   25°50′41″E
темп.,
°C
ветер,
м/с
пор.,
м/с
влажн.,
%
обл.,
%
осадки,
мм/ч
давл.,
гПа
погр.,
м
25 февраля, чт
чт2523:00+3зсз229569 0.0 103622
02:00+2зюз119477 0.0 103522
05:00+3зюз118866 0.0 103422
08:00+3ю118533 0.0 103422
11:00+5юв1210023 0.0 103327
14:00+7ю0110062 0.0 103227
17:00+6з118968 0.0 103122
20:00+4зюз118748 0.0 103122
26 февраля, пт
пт2623:00+4юз11950 0.0 103122
02:00+4зюз11860 0.0 103022
05:00+3зюз12740 0.0 102822
08:00+3зюз22710 0.0 102822
11:00+7з22750 0.0 102787
14:00+10сз24730 0.0 1025169
17:00+8зсз12850 0.0 102322
20:00+6зюз22850 0.0 102422
27 февраля, сб
сб2723:00+4з23911 0.0 102333
02:00+5сз4129350 0.1 1024444
05:00+4зсз51292100 0.5 1023659
08:00+4зсз51289100 0.9 1023640
11:00+5сз9127480 0.1 10231368
14:00+4сз9147990 0.3 10231190
17:00+4сз91479100 0.1 10231147
20:00+3сз8148499 0.2 1025910
28 февраля, вс
вс2823:00+2сз8148679 0.0 1026862
02:00+2сз6138979 0.1 1027704
05:00+1сз7118481 0.0 1028808
08:00+1сз7118990 0.1 1029799
11:00+2сз7983100 0.2 1030867
14:00+2сз71075100 0.3 10301092
17:00+2сз6975100 0.1 10301052
20:00+1сз5978100 0.1 1031794
1 марта, пн
пн123:000зсз51082100 0.0 1032402
02:000зсз4984100 0.0 1033320
05:00−1сз488863 0.0 1034249
08:000сз378739 0.0 1035342
11:00+3ссз45660 0.0 1036836
14:00+5сз456018 0.0 10361159
17:00+4сз456689 0.0 10361037
20:00+3ссз367395 0.0 1037263